Weather History for Southport, NC

Change the Weather History Date:

Sunday, March 10, 2013

  Actual Average (KILM) Record (KILM)
Temperature  
Mean Temperature 46 °F 54 °F  
Max Temperature 59 °F 65 °F 88 °F (1974)
Min Temperature 33 °F 42 °F 21 °F (1932)
Degree Days  
Heating Degree Days 19 12  
Month to date heating degree days 129  
Since 1 July heating degree days 2058  
Cooling Degree Days 0 0  
Month to date cooling degree days 0  
Year to date cooling degree days 5  
Moisture  
Dew Point 31 °F    
Average Humidity 63    
Maximum Humidity 96    
Minimum Humidity 17    
Precipitation  
Precipitation 0.00 in 0.14 in 5.12 in (1936)
Month to date precipitation 1.40  
Year to date precipitation 8.78  
Snow  
Snow 0.00 in 0.00 in - ()
Month to date snowfall 0.0  
Since 1 July snowfall 1.5  
Snow Depth -    
Sea Level Pressure  
Sea Level Pressure 30.27 in    
Wind  
Wind Speed 2 mph (ENE)    
Max Wind Speed 9 mph    
Max Gust Speed -    
Visibility 10 miles    
Events      
T = Trace of Precipitation, MM = Missing Value Source: NWS Daily Summary

Daily Weather History Graph

Daily Weather History Graph

Search for Another Location

Airport:

Trip Planner

Search our weather history database for the weather conditions in past years. The results will help you decide how hot, cold, wet, or windy it might be!

Date:

Astronomy

Mar. 10, 2013 Rise Set
Actual Time 7:29 AM EDT 7:16 PM EDT
Civil Twilight 7:04 AM EDT 7:41 PM EDT
Nautical Twilight 6:35 AM EDT 8:10 PM EDT
Astronomical Twilight 6:06 AM EDT 8:39 PM EDT
Moon 6:26 AM EDT (3/10) 6:22 PM EDT (3/10)
Length of Visible Light 12h 37m
Length of Day
11h 47m
Waning Crescent, 2% of the Moon is Illuminated
Mar 10
Waning Crescent
Mar 11
New
Mar 19
First Quarter
Mar 27
Full
Apr 3
Last Quarter

Hourly Weather History & Observations

Time (EDT) Temp. Windchill Dew Point Humidity Pressure Visibility Wind Dir Wind Speed Gust Speed Precip Events Conditions
12:15 AM 37.8 °F - 35.2 °F 91% 30.29 in 10.0 mi Calm Calm - N/A   Clear
12:35 AM 37.9 °F - 35.6 °F 91% 30.30 in 10.0 mi Calm Calm - N/A   Clear
12:55 AM 37.4 °F - 34.7 °F 90% 30.30 in 10.0 mi Calm Calm - N/A   Clear
1:15 AM 36.9 °F - 34.5 °F 91% 30.30 in 10.0 mi Calm Calm - N/A   Clear
1:35 AM 36.5 °F - 34.0 °F 91% 30.29 in 10.0 mi Calm Calm - N/A   Clear
1:55 AM 36.5 °F - 34.3 °F 92% 30.29 in 10.0 mi Calm Calm - N/A   Clear
3:15 AM 36.5 °F - 34.7 °F 93% 30.28 in 10.0 mi Calm Calm - N/A   Clear
3:35 AM 34.9 °F - 33.1 °F 93% 30.27 in 10.0 mi Calm Calm - N/A   Clear
3:55 AM 35.6 °F - 33.4 °F 92% 30.26 in 10.0 mi Calm Calm - N/A   Clear
4:15 AM 35.8 °F 33.0 °F 34.3 °F 94% 30.25 in 10.0 mi NNE 3.5 mph - N/A   Clear
4:35 AM 36.7 °F - 35.6 °F 96% 30.25 in 10.0 mi Calm Calm - N/A   Clear
4:55 AM 35.4 °F - 33.8 °F 94% 30.25 in 10.0 mi Calm Calm - N/A   Clear
5:15 AM 34.5 °F - 33.3 °F 95% 30.26 in 10.0 mi Calm Calm - N/A   Clear
5:35 AM 35.6 °F 32.8 °F 34.0 °F 94% 30.26 in 10.0 mi NNE 3.5 mph - N/A   Clear
5:55 AM 35.8 °F - 34.0 °F 93% 30.27 in 10.0 mi Calm Calm - N/A   Clear
6:15 AM 34.5 °F - 32.2 °F 91% 30.28 in 10.0 mi Calm Calm - N/A   Clear
6:35 AM 35.8 °F 33.0 °F 33.6 °F 92% 30.27 in 10.0 mi NNE 3.5 mph - N/A   Clear
6:55 AM 33.6 °F - 32.0 °F 94% 30.28 in 10.0 mi Calm Calm - N/A   Clear
7:15 AM 34.3 °F 31.4 °F 32.9 °F 94% 30.28 in 10.0 mi NNE 3.5 mph - N/A   Clear
7:35 AM 34.0 °F 31.0 °F 32.5 °F 94% 30.29 in 10.0 mi NNE 3.5 mph - N/A   Clear
8:15 AM 36.1 °F 33.5 °F 34.9 °F 95% 30.29 in 10.0 mi NNE 3.5 mph - N/A   Clear
8:35 AM 38.8 °F 36.5 °F 37.0 °F 93% 30.29 in 10.0 mi NNE 3.5 mph - N/A   Clear
8:55 AM 41.9 °F - 38.3 °F 87% 30.29 in 10.0 mi Calm Calm - N/A   Clear
9:15 AM 45.0 °F - 39.6 °F 81% 30.29 in 10.0 mi Calm Calm - N/A   Clear
9:35 AM 48.4 °F - 39.7 °F 72% 30.30 in 10.0 mi NE 3.5 mph - N/A   Clear
9:55 AM 51.3 °F - 37.4 °F 59% 30.31 in 10.0 mi ENE 4.6 mph - N/A   Clear
10:15 AM 52.9 °F - 32.7 °F 46% 30.31 in 10.0 mi East 4.6 mph - N/A   Clear
10:35 AM 53.8 °F - 29.7 °F 40% 30.32 in 10.0 mi ENE 6.9 mph - N/A   Clear
10:55 AM 53.8 °F - 29.7 °F 40% 30.32 in 10.0 mi East 8.1 mph - N/A   Clear
11:15 AM 54.7 °F - 28.0 °F 36% 30.32 in 10.0 mi East 8.1 mph - N/A   Clear
11:35 AM 53.6 °F - 28.4 °F 38% 30.32 in 10.0 mi ENE 8.1 mph - N/A   Clear
11:55 AM 54.7 °F - 30.2 °F 39% 30.31 in 10.0 mi East 8.1 mph - N/A   Clear
12:15 PM 54.0 °F - 30.7 °F 41% 30.31 in 10.0 mi ENE 6.9 mph - N/A   Clear
12:35 PM 56.1 °F - 29.5 °F 36% 30.30 in 10.0 mi East 8.1 mph - N/A   Clear
12:55 PM 56.3 °F - 28.9 °F 35% 30.30 in 10.0 mi ENE 6.9 mph - N/A   Clear
1:15 PM 56.5 °F - 25.7 °F 31% 30.30 in 10.0 mi East 5.8 mph - N/A   Clear
1:35 PM 57.4 °F - 21.0 °F 24% 30.30 in 10.0 mi East 6.9 mph - N/A   Clear
1:55 PM 58.3 °F - 20.7 °F 23% 30.29 in 10.0 mi ENE 5.8 mph - N/A   Clear
2:15 PM 58.6 °F - 18.0 °F 21% 30.28 in 10.0 mi ENE 5.8 mph - N/A   Clear
2:35 PM 57.0 °F - 20.5 °F 24% 30.27 in 10.0 mi East 3.5 mph - N/A   Clear
2:55 PM 58.5 °F - 20.1 °F 23% 30.27 in 10.0 mi East 6.9 mph - N/A   Clear
3:15 PM 58.6 °F - 18.7 °F 21% 30.26 in 10.0 mi ENE 5.8 mph - N/A   Clear
3:35 PM 59.0 °F - 17.6 °F 20% 30.26 in 10.0 mi East 9.2 mph - N/A   Clear
3:55 PM 59.2 °F - 18.5 °F 21% 30.26 in 10.0 mi East 5.8 mph - N/A   Clear
4:15 PM 59.0 °F - 18.7 °F 21% 30.26 in 10.0 mi ENE 8.1 mph - N/A   Clear
4:35 PM 58.3 °F - 15.1 °F 18% 30.26 in 10.0 mi East 5.8 mph - N/A   Clear
4:55 PM 57.7 °F - 13.3 °F 17% 30.25 in 10.0 mi ENE 6.9 mph - N/A   Clear
5:15 PM 57.4 °F - 12.7 °F 17% 30.26 in 10.0 mi East 4.6 mph - N/A   Clear
5:35 PM 57.2 °F - 15.1 °F 19% 30.24 in 10.0 mi ENE 8.1 mph - N/A   Clear
5:55 PM 56.7 °F - 19.0 °F 23% 30.25 in 10.0 mi East 6.9 mph - N/A   Clear
6:15 PM 55.6 °F - 21.7 °F 27% 30.25 in 10.0 mi East 5.8 mph - N/A   Clear
6:35 PM 54.5 °F - 19.9 °F 26% 30.25 in 10.0 mi East 4.6 mph - N/A   Clear
6:55 PM 53.2 °F - 21.7 °F 29% 30.25 in 10.0 mi Calm Calm - N/A   Clear
7:15 PM 51.8 °F - 23.9 °F 34% 30.26 in 10.0 mi Calm Calm - N/A   Clear
7:35 PM 50.0 °F - 24.1 °F 36% 30.26 in 10.0 mi Calm Calm - N/A   Clear
8:15 PM 47.7 °F - 30.2 °F 51% 30.26 in 10.0 mi Calm Calm - N/A   Clear
8:35 PM 47.3 °F - 36.0 °F 65% 30.26 in 10.0 mi Calm Calm - N/A   Clear
8:55 PM 46.9 °F - 38.7 °F 73% 30.25 in 10.0 mi East 3.5 mph - N/A   Clear
9:15 PM 47.5 °F - 42.8 °F 84% 30.25 in 10.0 mi East 3.5 mph - N/A   Clear
9:35 PM 47.7 °F - 43.9 °F 87% 30.25 in 10.0 mi Calm Calm - N/A   Clear
10:15 PM 45.7 °F 44.4 °F 42.6 °F 89% 30.26 in 10.0 mi North 3.5 mph - N/A   Clear
10:35 PM 44.8 °F 43.3 °F 41.9 °F 90% 30.26 in 10.0 mi NE 3.5 mph - N/A   Clear
10:55 PM 44.6 °F 43.1 °F 42.8 °F 93% 30.26 in 10.0 mi NE 3.5 mph - N/A   Clear
11:15 PM 44.8 °F - 42.8 °F 93% 30.26 in 10.0 mi Calm Calm - N/A   Clear
11:35 PM 44.8 °F - 42.8 °F 93% 30.26 in 10.0 mi Calm Calm - N/A   Clear
11:55 PM 44.8 °F - 43.2 °F 94% 30.26 in 10.0 mi Calm Calm - N/A   Clear
12:15 AM 45.0 °F - 43.5 °F 95% 30.25 in 7.0 mi Calm Calm - N/A   Clear
12:35 AM 45.0 °F 43.5 °F 43.9 °F 96% 30.24 in 7.0 mi NE 3.5 mph - N/A   Clear